Temp
-13 -13 -13 -13 -13 -13 -13 -12 -12 -12 -11 -11 -12 -12 -12 -12 -13 -13 -13 -13 -13 -13 -13 -13 -13 -13 -13 -13 -13 -13 -13 -13 -13 -13 -13 -14 -13 -14 -14 -15 -14 -13 -13
-14 -13 -13 -13 -14 -13 -13 -12 -12 -12 -12 -12 -12 -12 -12 -12 -12 -12 -13 -13 -13 -14 -13 -13 -13 -13 -13 -13 -13 -13 -14 -14 -13 -14 -14 -13 -13 -13 -14 -13 -13 -13 -13
-14 -13 -13 -13 -14 -13 -13 -13 -12 -12 -12 -12 -12 -12 -12 -12 -12 -13 -13 -13 -14 -14 -14 -13 -14 -13 -13 -13 -13 -13 -13 -14 -13 -14 -13 -13 -13 -13 -13 -13 -13 -13 -13
-14 -13 -13 -13 -13 -14 -13 -13 -13 -12 -12 -12 -12 -12 -12 -11 -12 -13 -13 -13 -14 -14 -14 -14 -14 -14 -14 -13 -13 -14 -14 -14 -14 -13 -13 -13 -13 -13 -13 -13 -13 -14 -14
-14 -13 -13 -13 -14 -14 -13 -13 -13 -12 -12 -12 -13 -13 -12 -12 -12 -12 -13 -13 -14 -14 -14 -14 -14 -14 -14 -14 -13 -14 -14 -14 -14 -14 -13 -13 -13 -13 -13 -14 -14 -14 -14
-14 -13 -13 -13 -14 -14 -13 -13 -13 -13 -12 -13 -13 -12 -12 -12 -12 -12 -12 -13 -14 -14 -14 -14 -14 -14 -14 -14 -14 -14 -14 -14 -14 -14 -14 -14 -14 -14 -13 -14 -14 -14 -14
-14 -14 -14 -14 -14 -13 -13 -13 -13 -12 -12 -12 -13 -12 -12 -12 -12 -12 -12 -13 -13 -14 -14 -13 -13 -13 -14 -14 -14 -14 -14 -14 -14 -14 -14 -14 -14 -14 -14 -14 -14 -14 -14
-14 -14 -14 -14 -14 -13 -13 -13 -13 -13 -12 -12 -13 -12 -12 -12 -12 -12 -12 -13 -13 -14 -14 -13 -14 -14 -14 -14 -14 -14 -14 -14 -14 -14 -14 -14 -14 -14 -14 -14 -14 -14 -14
-14 -14 -14 -14 -13 -13 -13 -14 -13 -13 -12 -12 -12 -12 -12 -11 -12 -12 -12 -13 -13 -13 -14 -14 -14 -14 -14 -14 -14 -14 -14 -14 -14 -14 -14 -14 -14 -13 -14 -14 -14 -14 -14
-14 -14 -14 -14 -13 -13 -14 -14 -13 -13 -12 -12 -12 -12 -12 -12 -12 -12 -13 -13 -12 -13 -14 -14 -14 -14 -14 -14 -14 -14 -14 -14 -13 -14 -13 -14 -14 -14 -14 -14 -14 -14 -15
-14 -14 -14 -14 -14 -13 -13 -13 -13 -13 -13 -12 -12 -12 -12 -12 -12 -12 -13 -13 -13 -13 -13 -13 -13 -14 -14 -14 -14 -14 -14 -14 -14 -13 -14 -14 -14 -14 -14 -14 -14 -14 -15
-15 -14 -14 -14 -14 -14 -13 -13 -13 -13 -13 -13 -13 -13 -12 -12 -12 -12 -13 -13 -13 -13 -13 -13 -14 -14 -14 -14 -14 -14 -14 -14 -14 -14 -14 -14 -14 -14 -14 -14 -14 -15 -15
-14 -14 -14 -14 -14 -14 -15 -14 -14 -13 -13 -13 -13 -13 -13 -13 -13 -13 -13 -13 -13 -13 -13 -13 -13 -13 -14 -14 -14 -14 -14 -14 -14 -14 -14 -14 -14 -14 -14 -15 -15 -15 -15
-15 -15 -14 -14 -14 -14 -15 -14 -13 -13 -13 -13 -13 -13 -13 -13 -13 -13 -13 -13 -13 -13 -13 -14 -13 -14 -14 -14 -14 -14 -14 -14 -14 -14 -14 -14 -14 -15 -15 -15 -15 -15 -15
-15 -15 -14 -14 -14 -15 -15 -13 -13 -13 -13 -13 -13 -13 -13 -13 -13 -13 -13 -13 -13 -13 -13 -13 -14 -14 -14 -14 -14 -14 -14 -14 -14 -14 -14 -14 -15 -15 -16 -15 -15 -15 -15
-15 -15 -14 -15 -14 -15 -15 -13 -13 -13 -13 -13 -13 -13 -13 -13 -13 -13 -13 -13 -13 -13 -13 -14 -14 -14 -14 -14 -14 -14 -14 -14 -15 -15 -15 -15 -15 -16 -16 -15 -15 -15 -15
-15 -15 -15 -15 -15 -15 -15 -13 -13 -13 -13 -13 -13 -13 -13 -13 -14 -13 -14 -13 -13 -13 -14 -14 -14 -14 -14 -15 -15 -15 -15 -15 -15 -15 -15 -16 -15 -15 -15 -15 -15 -16 -16
-15 -15 -15 -15 -15 -15 -14 -13 -13 -13 -13 -13 -13 -13 -13 -13 -14 -14 -13 -14 -14 -14 -14 -14 -14 -14 -14 -14 -15 -15 -15 -15 -15 -15 -15 -15 -15 -15 -15 -16 -16 -16 -16
-16 -15 -15 -15 -15 -15 -14 -14 -13 -13 -13 -13 -13 -13 -13 -14 -14 -14 -14 -14 -14 -14 -14 -14 -14 -14 -14 -15 -15 -15 -15 -15 -15 -15 -15 -15 -16 -16 -16 -16 -16 -16 -16
-15 -15 -15 -15 -15 -15 -14 -14 -14 -13 -13 -13 -14 -14 -14 -14 -14 -14 -14 -14 -14 -14 -14 -14 -14 -15 -15 -15 -15 -15 -15 -15 -15 -15 -15 -15 -16 -16 -16 -16 -16 -16 -16
-15 -15 -15 -15 -15 -15 -15 -14 -14 -14 -14 -14 -14 -14 -14 -14 -14 -14 -14 -14 -14 -14 -14 -14 -15 -15 -15 -15 -15 -15 -15 -15 -15 -15 -15 -16 -16 -16 -16 -16 -16 -16 -16
-16 -15 -15 -15 -15 -15 -15 -15 -15 -14 -14 -14 -14 -14 -14 -14 -14 -14 -14 -14 -14 -14 -14 -15 -15 -15 -15 -15 -15 -15 -16 -16 -16 -16 -16 -16 -16 -16 -16 -16 -16 -16 -16
-16 -16 -15 -15 -15 -15 -15 -15 -15 -15 -15 -14 -14 -14 -14 -15 -14 -14 -15 -14 -15 -15 -15 -15 -15 -15 -15 -15 -15 -16 -16 -16 -16 -16 -16 -16 -16 -16 -16 -16 -16 -16 -16
-16 -16 -16 -15 -15 -15 -15 -15 -15 -15 -15 -15 -15 -15 -15 -15 -15 -15 -15 -15 -15 -15 -15 -15 -15 -15 -16 -16 -16 -16 -16 -16 -16 -16 -16 -16 -16 -16 -16 -16 -16 -16 -16
-16 -16 -15 -15 -15 -15 -15 -15 -15 -15 -15 -15 -15 -15 -15 -15 -15 -15 -15 -15 -16 -15 -15 -15 -15 -16 -16 -16 -16 -16 -16 -16 -16 -16 -16 -16 -17 -17 -17 -17 -17 -17 -17
-15 -15 -15 -15 -15 -15 -15 -15 -15 -15 -15 -15 -15 -15 -15 -15 -15 -15 -15 -15 -16 -15 -15 -16 -16 -16 -16 -16 -16 -16 -16 -16 -16 -16 -17 -17 -17 -17 -17 -18 -18 -18 -18
Height
5762 5762 5762 5761 5763 5764 5763 5763 5765 5764 5766 5769 5772 5777 5782 5784 5786 5790 5794 5795 5800 5804 5807 5809 5811 5813 5814 5816 5817 5818 5818 5819 5819 5820 5819 5821 5822 5822 5822 5823 5824 5824 5823
5756 5757 5756 5756 5757 5759 5759 5759 5760 5762 5764 5765 5768 5772 5777 5779 5783 5786 5788 5790 5795 5799 5802 5805 5807 5809 5811 5812 5813 5813 5814 5815 5815 5816 5817 5818 5819 5819 5820 5820 5819 5819 5819
5752 5751 5751 5751 5752 5753 5753 5754 5756 5757 5760 5762 5762 5766 5772 5775 5778 5783 5781 5786 5790 5794 5797 5800 5802 5804 5807 5807 5809 5809 5810 5811 5812 5812 5813 5814 5814 5815 5815 5816 5816 5815 5815
5745 5745 5745 5745 5745 5747 5749 5750 5752 5754 5755 5756 5758 5761 5765 5770 5774 5777 5777 5782 5785 5788 5792 5794 5797 5800 5802 5803 5804 5804 5805 5806 5807 5807 5809 5809 5809 5810 5810 5810 5810 5810 5809
5739 5739 5738 5738 5739 5740 5742 5744 5745 5748 5749 5751 5753 5754 5759 5764 5769 5770 5773 5776 5779 5783 5787 5790 5793 5795 5797 5798 5798 5798 5799 5800 5801 5802 5803 5804 5804 5805 5805 5805 5805 5805 5804
5733 5732 5732 5732 5733 5734 5736 5738 5741 5742 5743 5745 5747 5749 5753 5757 5762 5765 5767 5770 5773 5777 5781 5785 5788 5789 5791 5792 5793 5792 5793 5794 5796 5797 5798 5800 5800 5800 5800 5799 5798 5798 5797
5725 5725 5726 5726 5726 5728 5729 5731 5733 5735 5737 5739 5741 5743 5746 5751 5756 5760 5762 5765 5768 5771 5774 5778 5781 5783 5785 5786 5786 5786 5788 5788 5790 5792 5793 5793 5795 5795 5794 5793 5792 5791 5791
5718 5719 5719 5719 5721 5722 5722 5724 5726 5729 5730 5732 5734 5738 5740 5745 5750 5754 5758 5761 5763 5765 5768 5771 5774 5777 5779 5780 5781 5781 5782 5783 5784 5786 5787 5787 5788 5788 5788 5786 5785 5783 5782
5712 5713 5713 5713 5715 5716 5717 5717 5719 5721 5722 5725 5727 5728 5733 5740 5744 5749 5753 5753 5757 5760 5762 5765 5768 5770 5772 5773 5774 5775 5776 5776 5777 5779 5780 5780 5781 5781 5780 5779 5778 5777 5775
5705 5706 5706 5708 5710 5709 5709 5709 5711 5713 5716 5718 5721 5723 5729 5734 5738 5743 5747 5748 5750 5753 5756 5759 5760 5762 5764 5766 5766 5767 5769 5770 5770 5771 5772 5773 5773 5773 5772 5771 5770 5769 5767
5700 5699 5700 5703 5703 5702 5702 5702 5703 5706 5709 5712 5716 5719 5725 5728 5733 5738 5741 5745 5746 5748 5749 5752 5754 5756 5757 5759 5760 5760 5762 5763 5764 5764 5765 5765 5765 5765 5764 5762 5761 5759 5758
5695 5695 5695 5696 5696 5695 5693 5693 5695 5698 5702 5707 5710 5714 5720 5724 5727 5731 5735 5738 5740 5743 5744 5746 5748 5750 5750 5753 5753 5753 5756 5756 5757 5758 5759 5759 5758 5757 5756 5755 5753 5752 5750
5688 5689 5690 5690 5689 5688 5687 5686 5688 5692 5695 5700 5704 5709 5713 5717 5721 5725 5728 5732 5735 5737 5738 5739 5741 5743 5745 5745 5747 5748 5750 5751 5751 5751 5752 5751 5751 5750 5748 5747 5745 5744 5743
5683 5685 5685 5684 5684 5683 5680 5678 5680 5684 5688 5693 5698 5703 5707 5711 5715 5719 5722 5725 5727 5729 5731 5733 5735 5737 5739 5740 5741 5742 5743 5743 5744 5744 5744 5744 5743 5742 5741 5740 5738 5736 5735
5678 5679 5679 5679 5679 5677 5673 5671 5673 5677 5682 5687 5693 5697 5701 5705 5708 5712 5715 5718 5720 5721 5724 5726 5730 5732 5734 5736 5735 5736 5736 5735 5735 5736 5736 5736 5735 5734 5733 5731 5730 5729 5728
5672 5672 5673 5674 5674 5672 5667 5666 5669 5673 5677 5682 5687 5692 5696 5699 5702 5706 5710 5712 5714 5717 5720 5722 5724 5725 5727 5728 5728 5728 5729 5729 5729 5728 5727 5726 5726 5725 5725 5724 5724 5724 5723
5666 5667 5669 5669 5669 5668 5664 5662 5664 5669 5672 5677 5682 5686 5691 5694 5697 5700 5703 5707 5710 5712 5714 5716 5717 5719 5720 5720 5720 5720 5720 5721 5721 5720 5719 5718 5718 5719 5718 5719 5717 5715 5714
5660 5663 5664 5664 5664 5663 5660 5660 5661 5664 5668 5673 5677 5682 5685 5688 5692 5695 5699 5702 5704 5706 5708 5709 5711 5712 5713 5712 5712 5713 5712 5713 5713 5711 5711 5713 5712 5710 5710 5710 5708 5707 5705
5655 5656 5658 5659 5660 5659 5658 5657 5657 5660 5665 5669 5673 5677 5680 5683 5687 5690 5693 5695 5696 5698 5701 5703 5703 5704 5704 5703 5703 5705 5705 5705 5704 5705 5704 5704 5703 5703 5702 5701 5699 5696 5694
5649 5651 5654 5654 5655 5656 5656 5656 5656 5658 5660 5663 5666 5671 5675 5678 5681 5683 5685 5687 5689 5692 5694 5696 5696 5695 5695 5694 5696 5698 5698 5697 5697 5697 5697 5696 5696 5695 5692 5690 5688 5686 5684
5643 5646 5648 5649 5650 5651 5653 5654 5655 5657 5659 5661 5664 5667 5670 5673 5675 5677 5678 5680 5682 5683 5684 5686 5687 5687 5688 5688 5689 5689 5689 5688 5688 5687 5687 5686 5684 5683 5681 5679 5678 5676 5674
5638 5641 5643 5644 5645 5647 5649 5650 5652 5655 5656 5658 5660 5663 5666 5667 5669 5670 5671 5673 5674 5675 5676 5678 5679 5680 5680 5680 5679 5680 5679 5679 5678 5677 5674 5673 5672 5670 5669 5667 5664 5662 5658
5633 5635 5637 5639 5640 5642 5644 5646 5647 5650 5652 5654 5655 5658 5660 5661 5662 5663 5664 5665 5666 5667 5668 5669 5669 5670 5670 5670 5670 5669 5668 5667 5665 5664 5664 5661 5659 5657 5655 5653 5650 5647 5644
5626 5628 5630 5632 5634 5635 5637 5639 5641 5642 5645 5647 5648 5650 5652 5654 5655 5656 5657 5658 5659 5659 5659 5659 5659 5659 5659 5659 5659 5658 5657 5656 5654 5652 5650 5647 5645 5642 5639 5636 5633 5630 5626
5619 5621 5622 5625 5626 5628 5630 5632 5633 5635 5636 5638 5640 5641 5643 5645 5646 5646 5647 5647 5648 5648 5649 5649 5649 5648 5648 5648 5647 5646 5645 5644 5641 5639 5635 5633 5630 5626 5623 5619 5616 5612 5608
5607 5611 5614 5616 5618 5619 5620 5623 5624 5625 5626 5627 5629 5631 5632 5633 5634 5635 5635 5636 5636 5635 5636 5636 5636 5636 5635 5634 5633 5631 5629 5627 5625 5622 5619 5616 5612 5608 5604 5600 5596 5593 5589
Wind_Speed
26 28 28 26 22 23 23 21 20 14 22 30 30 28 23 27 28 23 25 29 27 27 27 25 25 23 21 20 20 22 20 18 17 19 13 11 12 14 14 11 13 14 14
27 27 27 25 23 24 23 22 19 16 18 28 31 29 24 26 26 26 26 29 27 27 26 25 23 23 22 22 23 21 18 16 15 13 12 12 12 12 12 13 14 14 16
26 27 26 27 25 23 25 24 19 19 20 29 26 30 29 28 27 27 30 30 27 26 26 25 25 23 22 24 25 24 23 22 18 15 14 14 14 15 15 16 17 18 19
25 25 26 28 29 26 26 25 25 20 22 25 29 29 29 31 29 28 32 29 28 28 28 26 27 26 25 25 24 30 26 25 22 19 18 17 18 18 18 19 20 21 22
25 25 27 28 27 25 25 26 26 23 22 24 26 29 34 30 27 25 29 27 29 30 29 26 24 24 26 25 26 26 24 22 22 21 20 21 22 21 21 21 22 23 25
25 25 25 26 25 25 26 25 25 26 24 25 27 31 37 35 33 30 30 26 27 29 30 30 28 28 28 25 26 25 25 23 24 23 22 23 24 24 24 24 24 25 27
25 23 20 21 23 25 26 24 25 22 25 25 28 33 46 38 37 36 31 27 27 30 28 29 29 27 27 29 28 25 26 26 27 26 24 24 26 28 27 28 28 28 30
25 21 21 21 25 27 28 27 25 26 26 25 30 37 42 39 40 36 32 30 29 31 30 30 28 29 29 27 26 25 26 24 27 27 26 25 27 30 32 33 33 33 34
24 22 21 22 26 28 27 29 27 28 27 27 30 39 42 36 38 35 30 32 30 32 31 30 31 32 32 32 29 30 29 26 27 27 28 29 31 34 34 37 40 41 40
23 21 20 21 20 21 27 30 30 29 30 27 25 44 39 32 31 35 37 35 34 33 33 31 34 35 34 36 33 32 29 26 28 29 30 31 32 34 36 34 33 34 33
21 19 21 20 19 21 23 29 30 29 31 26 27 33 31 38 36 36 33 32 33 34 34 31 33 34 34 35 32 29 30 30 28 29 30 31 32 33 30 30 30 29 33
18 19 19 18 19 21 25 30 33 30 30 27 30 30 34 31 34 36 38 35 34 33 32 32 31 32 30 28 28 29 30 30 30 30 29 29 28 27 27 27 29 32 32
17 16 16 17 16 18 23 28 30 29 30 31 29 30 31 34 31 33 35 32 31 34 35 30 30 29 29 29 29 29 30 31 30 30 29 27 28 26 27 30 31 30 31
18 18 16 14 18 20 25 25 26 29 32 34 31 32 29 34 32 31 33 33 33 36 36 33 31 28 27 29 30 31 31 30 28 26 26 29 29 29 29 31 32 30 29
20 19 17 18 19 20 23 21 22 27 29 28 36 30 31 34 35 32 31 30 33 32 30 30 28 28 26 27 29 30 30 31 32 31 32 30 29 30 31 33 31 31 28
20 15 17 20 20 20 22 19 24 26 26 30 32 33 30 30 31 30 27 30 27 25 26 27 26 26 26 28 29 30 29 30 31 33 33 30 30 31 31 31 32 32 32
19 16 18 18 18 17 19 17 23 29 29 28 35 32 28 29 31 30 31 29 24 25 28 28 28 25 25 28 28 28 27 28 28 29 30 31 31 31 31 31 32 32 32
19 18 18 17 17 16 12 11 23 27 28 32 30 30 30 29 31 29 28 28 29 29 30 29 29 30 31 31 30 28 28 29 29 29 30 29 30 31 31 31 32 32 33
22 20 20 17 16 14 11 8 13 28 27 27 29 35 26 24 25 27 29 28 31 32 34 30 30 31 32 31 30 28 27 28 30 31 31 32 32 33 34 36 37 37 38
22 20 19 17 15 14 11 8 10 20 22 24 25 28 28 29 28 31 33 33 34 32 32 30 31 31 31 31 29 28 31 32 33 33 34 36 35 38 39 41 40 38 40
20 20 18 16 15 15 13 9 11 14 19 24 21 23 25 29 31 28 30 32 33 34 33 34 30 31 32 31 31 30 32 35 36 38 38 40 42 39 47 46 45 45 50
22 21 19 17 17 16 15 14 13 15 19 25 25 24 24 29 34 33 30 32 33 32 32 32 32 32 32 33 35 36 37 38 39 40 42 44 45 47 49 51 52 53 54
27 24 24 21 20 20 20 20 20 20 20 24 27 28 26 29 31 31 33 33 34 34 35 36 35 36 37 38 39 41 42 42 44 44 45 48 51 52 54 56 57 57 59
32 29 28 26 25 24 25 25 24 25 27 29 30 31 31 32 33 34 36 36 38 38 39 39 40 41 42 43 43 43 46 46 48 49 50 54 55 57 58 59 60 61 62
38 39 34 33 31 30 29 29 28 30 33 33 34 36 38 38 38 39 40 41 41 46 44 44 45 45 45 46 47 47 49 51 52 54 56 57 58 59 60 61 62 63 65
43 45 42 39 38 38 37 36 37 35 37 40 38 40 41 43 44 45 47 47 48 49 49 48 49 49 50 52 53 53 54 56 58 60 60 61 61 62 62 65 66 68 69
Wind_Direction
289 287 278 266 258 253 255 258 248 256 231 209 210 219 220 229 222 222 226 233 236 237 240 241 244 244 240 250 261 261 268 260 267 263 254 257 258 270 271 268 255 258 264
284 281 274 259 251 252 255 260 253 241 233 218 216 224 225 224 224 223 227 233 234 239 239 239 239 244 247 256 255 263 261 262 263 264 262 257 257 266 260 253 255 258 259
278 275 269 257 245 249 252 255 255 234 233 218 221 233 224 226 225 227 229 236 239 237 237 241 243 245 249 253 259 265 268 260 265 251 247 250 252 255 259 261 262 266 268
277 271 264 255 243 245 249 252 244 243 239 220 219 228 230 224 228 227 234 239 239 239 237 238 242 242 248 255 263 271 265 265 260 249 246 249 251 253 256 260 262 264 266
273 267 260 251 241 243 251 249 244 237 239 236 236 236 232 221 224 222 235 235 235 233 233 239 246 243 252 259 264 272 259 261 246 250 255 255 255 258 260 262 267 271 272
270 263 252 246 240 243 246 248 240 237 242 242 238 232 228 225 224 227 235 237 236 232 227 233 240 248 253 258 265 264 254 253 248 252 256 261 263 265 268 268 268 270 273
267 257 245 243 245 243 245 241 236 243 239 246 232 237 226 229 222 227 238 243 233 228 223 229 233 245 252 258 261 258 252 258 249 253 258 262 269 272 272 272 271 270 273
259 250 248 248 250 248 249 246 242 245 239 242 233 230 227 223 216 223 237 243 230 225 219 223 232 241 250 258 257 254 259 258 248 253 259 266 269 270 272 273 274 269 270
253 254 255 256 254 250 247 240 244 244 240 244 236 236 213 225 217 227 234 241 230 225 222 226 233 242 248 255 254 252 257 254 251 256 262 266 271 275 281 283 285 285 282
252 259 258 256 260 261 244 237 245 243 239 244 233 218 231 219 224 226 231 230 222 223 224 230 238 244 246 250 254 254 252 256 257 256 262 269 273 277 278 279 283 284 285
255 262 258 258 263 270 265 256 249 239 235 238 235 221 226 231 234 220 230 230 229 231 232 235 243 249 248 249 251 253 250 253 255 258 265 271 270 269 276 283 283 286 286
256 256 254 259 270 288 274 254 245 235 224 235 232 226 227 233 231 226 227 228 229 233 239 242 245 247 245 241 246 251 253 256 259 264 270 272 275 278 280 280 286 286 284
251 247 253 263 277 283 285 252 240 234 225 223 233 233 240 239 237 238 237 240 239 242 239 235 239 240 243 247 248 250 253 258 263 267 268 270 274 271 274 278 284 281 283
249 238 251 276 278 281 289 251 236 230 218 230 232 239 231 230 240 237 239 245 248 246 232 228 234 239 243 250 257 259 261 259 261 265 266 275 268 266 274 278 280 280 282
252 246 258 275 293 279 286 244 221 218 215 224 224 227 230 237 233 235 238 240 243 233 227 225 229 238 246 252 249 252 258 262 267 269 271 271 268 272 276 275 270 272 275
251 252 262 274 288 294 298 226 219 208 225 219 221 222 230 228 229 234 235 237 228 224 228 232 239 247 246 250 253 254 255 258 262 265 267 267 268 270 272 276 276 279 283
249 256 262 273 285 292 293 232 223 216 209 212 217 221 223 230 233 238 240 229 225 239 238 240 243 247 254 254 256 267 265 265 263 263 263 260 265 274 278 281 280 281 282
250 254 260 267 279 291 290 238 219 220 219 225 218 220 229 232 235 239 229 228 240 243 243 248 246 254 261 261 258 260 254 260 262 264 265 274 274 270 272 274 275 279 281
249 254 257 260 270 285 283 249 223 210 214 219 219 220 227 228 236 233 237 233 242 244 243 249 256 261 264 261 257 257 261 262 263 267 266 266 268 272 276 278 281 283 284
246 248 254 258 262 269 282 266 220 222 221 217 211 213 223 229 234 239 234 236 244 246 248 252 253 253 252 253 257 260 262 262 263 265 268 270 271 273 275 274 275 276 279
245 244 244 251 257 263 271 266 237 223 213 204 216 221 228 228 231 231 237 238 243 248 248 248 251 253 257 261 263 263 264 265 267 270 274 275 276 271 275 279 279 276 275
239 245 241 243 251 255 261 259 249 237 232 233 235 236 242 239 230 236 243 244 245 249 251 253 253 254 257 260 262 264 265 267 270 271 271 274 275 275 276 278 279 278 278
238 241 246 244 247 255 256 256 257 253 242 242 247 250 245 241 245 244 246 248 250 251 252 253 255 259 262 263 266 266 267 267 271 270 272 274 276 277 278 279 279 279 280
244 242 244 246 247 250 259 261 259 258 260 258 251 249 248 247 247 248 249 251 251 253 256 258 259 261 262 264 264 264 267 267 268 270 274 276 277 277 278 281 282 283 284
252 248 245 242 242 248 251 253 259 261 260 257 257 257 255 253 253 252 253 253 248 256 260 261 261 262 263 263 264 265 268 270 270 273 277 279 280 281 281 282 283 284 286
248 246 246 246 246 248 251 250 255 262 261 256 253 256 257 257 257 257 257 255 254 255 256 257 258 259 262 264 265 267 269 270 271 275 280 281 281 282 283 285 286 287 288